Location: Lourdes
(43.1000°N, 0.0500°W)
Time: 01:57:43
(UTC+00:00)

Cosmos 773 Rocket - Pass Details

Date: 17 April 2021
Orbit: 745 x 777 km, 74.1° (Epoch: 10 May)

Event Time Altitude Azimuth Distance (km) Brightness Sun altitude
Rises 02:18:08 0° 331° (NNW) 3,257 7.5 -27.8°
Reaches altitude 10° 02:20:40 10° 323° (NW) 2,329 6.6 -27.5°
Enters shadow 02:22:42 21° 310° (NW) 1,674 5.7 -27.3°
